Simultaneous Nadir Overpasses (SNOs) Predictions

Prediction of SNOs between LANDSAT-8 and NOAA-19 Satellite Orbit:

Table of predicted SNOs for the next 14.0 days since TLE Epoch: 11/21/2020
Index Date (LANDSAT-8) Time (LANDSAT-8) Lat,Lon (LANDSAT-8) SZA (LANDSAT-8 ) Date (NOAA-19) Time (NOAA-19) Lat,Lon (NOAA-19) SZA (NOAA-19 ) Distance(km) Time Diff (sec)
1 11/22/2020 00:19:43 80.08,-156.64 101.63 11/22/2020 00:19:01 80.07,-156.68 101.60 0.91 42
2 11/22/2020 01:09:11 -80.04, 10.70 78.43 11/22/2020 01:10:06 -80.06, 10.68 78.39 2.39 55
3 11/24/2020 05:53:28 -80.08, -60.04 77.93 11/24/2020 05:52:21 -80.09, -60.12 77.95 1.72 67
4 11/24/2020 06:42:54 80.08, 107.62 102.09 11/24/2020 06:43:15 80.06, 107.49 102.07 3.32 21
5 11/26/2020 12:16:40 -80.05,-156.08 77.56 11/26/2020 12:16:35 -80.08,-155.98 77.53 3.51 5
6 11/28/2020 17:50:23 80.08, -59.24 102.88 11/28/2020 17:49:44 80.08, -59.15 102.86 1.95 39
7 11/28/2020 18:39:51 -80.06, 108.15 77.17 11/28/2020 18:40:49 -80.07, 108.14 77.13 1.90 58
8 11/30/2020 23:24:08 -80.09, 37.35 76.78 11/30/2020 23:23:04 -80.10, 37.27 76.80 2.14 64
9 12/01/2020 00:13:34 80.08,-155.04 103.22 12/01/2020 00:13:58 80.07,-154.98 103.22 2.16 24
